DW6558 Weather Reports


time (UTC)temp
C
wind
direction
speed
KPH
gust
KPH
rain 1hr
cm
rain 24hr
cm
rain mn
cm
humidity
%
barometer
mb
20260905002809 26 209 1.6 3.2 0.00 0.00 0.00 24 931.1
20260905002309 26 188 4.8 17.7 0.00 0.00 0.00 25 931.2
20260905001804 26 218 4.8 11.3 0.00 0.00 0.00 24 931.3
20260905001303 26 236 3.2 24.1 0.00 0.00 0.00 24 931.7
20260905000759 26 213 6.4 20.9 0.00 0.00 0.00 24 931.5
20260905000255 26 215 12.9 24.1 0.00 0.00 0.00 24 931.2
20260904235749 27 188 1.6 25.7 0.00 0.00 0.00 24 931.3
20260904235244 27 253 4.8 24.1 0.00 0.00 0.00 24 931.3
20260904234739 27 287 9.7 20.9 0.00 0.00 0.00 24 931.2
20260904234234 27 212 11.3 17.7 0.00 0.00 0.00 24 930.8
20260904233730 27 242 12.9 22.5 0.00 0.00 0.00 24 930.9
20260904233226 26 216 8.0 16.1 0.00 0.00 0.00 24 930.9
20260904232723 26 199 4.8 12.9 0.00 0.00 0.00 24 931.0
20260904232219 27 250 24.1 29.0 0.00 0.00 0.00 23 930.8
20260904231714 27 233 8.0 20.9 0.00 0.00 0.00 24 931.0
20260904231209 27 234 1.6 22.5 0.00 0.00 0.00 24 930.8
20260904230708 27 343 1.6 12.9 0.00 0.00 0.00 24 930.8
20260904230203 27 246 9.7 17.7 0.00 0.00 0.00 24 930.8
20260904225701 27 237 14.5 22.5 0.00 0.00 0.00 24 930.9
20260904225156 27 211 8.0 20.9 0.00 0.00 0.00 25 930.9
20260904224651 27 251 9.7 17.7 0.00 0.00 0.00 24 931.1
20260904224150 27 211 14.5 17.7 0.00 0.00 0.00 23 931.2
20260904223650 27 253 6.4 32.2 0.00 0.00 0.00 25 931.0
20260904223145 27 151 0.0 9.7 0.00 0.00 0.00 25 930.8
20260904222641 27 231 1.6 25.7 0.00 0.00 0.00 25 930.9
20260904222137 26 267 14.5 29.0 0.00 0.00 0.00 25 931.0
20260904221637 27 225 14.5 25.7 0.00 0.00 0.00 24 931.0
20260904221137 27 239 6.4 27.4 0.00 0.00 0.00 24 931.0
20260904220632 27 16 3.2 17.7 0.00 0.00 0.00 24 931.3
20260904220127 26 279 8.0 11.3 0.00 0.00 0.00 25 931.2
20260904215621 26 249 20.9 32.2 0.00 0.00 0.00 25 931.3
20260904215117 27 237 14.5 25.7 0.00 0.00 0.00 24 931.1
20260904214617 26 291 12.9 22.5 0.00 0.00 0.00 24 931.6
20260904214113 26 249 11.3 22.5 0.00 0.00 0.00 24 931.5
20260904213611 26 251 9.7 16.1 0.00 0.00 0.00 24 931.2
20260904213108 27 248 11.3 20.9 0.00 0.00 0.00 24 931.3
20260904212607 27 272 8.0 25.7 0.00 0.00 0.00 24 931.3
20260904212103 26 187 1.6 22.5 0.00 0.00 0.00 25 931.5
20260904211602 26 255 20.9 27.4 0.00 0.00 0.00 24 931.5
20260904211058 26 220 8.0 37.0 0.00 0.00 0.00 25 931.1
20260904210557 26 245 12.9 29.0 0.00 0.00 0.00 24 931.3
20260904210053 26 211 11.3 25.7 0.00 0.00 0.00 25 931.1
20260904205548 26 222 16.1 32.2 0.00 0.00 0.00 24 931.2
20260904205045 26 185 1.6 17.7 0.00 0.00 0.00 25 931.2
20260904204541 26 189 8.0 16.1 0.00 0.00 0.00 25 931.5
20260904204036 26 163 4.8 35.4 0.00 0.00 0.00 25 931.2
20260904203532 26 222 14.5 29.0 0.00 0.00 0.00 24 931.6
20260904203028 26 202 12.9 25.7 0.00 0.00 0.00 24 931.5
20260904202524 26 245 8.0 27.4 0.00 0.00 0.00 24 931.6
20260904202020 26 174 14.5 17.7 0.00 0.00 0.00 24 931.5
20260904201515 26 253 11.3 24.1 0.00 0.00 0.00 23 931.5
20260904201010 26 201 14.5 29.0 0.00 0.00 0.00 25 931.5
20260904200509 26 213 16.1 25.7 0.00 0.00 0.00 24 931.3
20260904200004 25 192 11.3 32.2 0.00 0.00 0.00 25 931.7
20260904195502 25 201 17.7 24.1 0.00 0.00 0.00 24 931.7
20260904195001 25 222 19.3 32.2 0.00 0.00 0.00 24 931.7
20260904194457 25 208 9.7 16.1 0.00 0.00 0.00 25 931.7
20260904193951 25 179 9.7 25.7 0.00 0.00 0.00 25 931.7
20260904193447 25 183 17.7 22.5 0.00 0.00 0.00 25 931.9
20260904192942 25 227 12.9 22.5 0.00 0.00 0.00 24 931.7
20260904192437 25 240 1.6 20.9 0.00 0.00 0.00 25 931.7
20260904191933 25 253 12.9 20.9 0.00 0.00 0.00 25 931.8
20260904191430 25 187 17.7 27.4 0.00 0.00 0.00 25 931.8
20260904190926 25 184 14.5 29.0 0.00 0.00 0.00 25 932.3
20260904190426 25 208 6.4 24.1 0.00 0.00 0.00 25 932.1
20260904185923 25 199 24.1 32.2 0.00 0.00 0.00 24 932.0
20260904185418 25 201 14.5 20.9 0.00 0.00 0.00 25 932.3
20260904184913 24 240 14.5 24.1 0.00 0.00 0.00 25 932.1
20260904184408 24 212 20.9 37.0 0.00 0.00 0.00 25 932.1
20260904183903 24 207 11.3 17.7 0.00 0.00 0.00 25 932.6
20260904183358 24 234 16.1 22.5 0.00 0.00 0.00 25 932.3
20260904182854 24 245 3.2 14.5 0.00 0.00 0.00 26 932.4
20260904182354 24 228 8.0 25.7 0.00 0.00 0.00 25 932.8
20260904181849 24 337 3.2 29.0 0.00 0.00 0.00 26 932.6
20260904181343 23 246 9.7 17.7 0.00 0.00 0.00 26 932.5
20260904180839 23 239 14.5 17.7 0.00 0.00 0.00 24 932.5
20260904180334 23 213 1.6 32.2 0.00 0.00 0.00 27 932.4
20260904175833 23 128 8.0 24.1 0.00 0.00 0.00 26 932.5
20260904175334 23 178 14.5 25.7 0.00 0.00 0.00 25 932.7
20260904174826 23 242 8.0 24.1 0.00 0.00 0.00 25 932.6
20260904174322 23 157 14.5 24.1 0.00 0.00 0.00 25 932.5
20260904173818 23 227 9.7 14.5 0.00 0.00 0.00 26 932.5
20260904173313 23 313 8.0 17.7 0.00 0.00 0.00 26 932.4
20260904172809 23 249 14.5 32.2 0.00 0.00 0.00 25 932.5
20260904172308 23 192 14.5 37.0 0.00 0.00 0.00 25 932.3
20260904171804 23 160 9.7 25.7 0.00 0.00 0.00 27 932.5
20260904171259 22 255 3.2 22.5 0.00 0.00 0.00 26 932.3
20260904170755 23 193 12.9 20.9 0.00 0.00 0.00 26 932.5
20260904170251 22 242 11.3 22.5 0.00 0.00 0.00 26 932.6
20260904165750 22 196 3.2 17.7 0.00 0.00 0.00 26 932.3
20260904165244 22 228 17.7 20.9 0.00 0.00 0.00 26 932.4
20260904164738 22 29 0.0 25.7 0.00 0.00 0.00 27 932.5
20260904164234 22 191 11.3 20.9 0.00 0.00 0.00 27 932.6
20260904163730 22 234 12.9 20.9 0.00 0.00 0.00 26 932.6
20260904163225 22 253 9.7 29.0 0.00 0.00 0.00 27 932.6
20260904162724 22 213 14.5 22.5 0.00 0.00 0.00 26 932.4
20260904162219 21 177 17.7 24.1 0.00 0.00 0.00 27 932.4
20260904161714 21 243 12.9 32.2 0.00 0.00 0.00 27 932.5
20260904161210 21 250 16.1 32.2 0.00 0.00 0.00 26 932.7
20260904160705 21 235 0.0 22.5 0.00 0.00 0.00 27 932.4
20260904160201 21 221 6.4 20.9 0.00 0.00 0.00 27 932.6
20260904155701 21 215 8.0 24.1 0.00 0.00 0.00 27 932.4
20260904155155 20 193 8.0 9.7 0.00 0.00 0.00 30 932.6
20260904154653 20 233 3.2 14.5 0.00 0.00 0.00 29 932.5
20260904154153 20 188 11.3 12.9 0.00 0.00 0.00 28 932.5
20260904153649 20 187 0.0 11.3 0.00 0.00 0.00 30 932.8
20260904153144 20 201 12.9 17.7 0.00 0.00 0.00 28 932.8
20260904152641 19 180 4.8 17.7 0.00 0.00 0.00 30 932.7
20260904152136 17 13 0.0 0.0 0.00 0.00 0.00 39 932.7
20260904151630 17 67 0.0 0.0 0.00 0.00 0.00 42 932.7
20260904151129 18 61 0.0 0.0 0.00 0.00 0.00 41 932.8
20260904150625 17 58 0.0 0.0 0.00 0.00 0.00 42 932.8
20260904150120 17 84 0.0 0.0 0.00 0.00 0.00 43 932.9
20260904145618 16 59 0.0 0.0 0.00 0.00 0.00 44 933.1
20260904145114 15 41 0.0 0.0 0.00 0.00 0.00 46 933.2
20260904144609 15 32 0.0 0.0 0.00 0.00 0.00 49 933.3
20260904144105 14 90 0.0 0.0 0.00 0.00 0.00 50 933.4
20260904143601 14 88 0.0 0.0 0.00 0.00 0.00 49 933.5
20260904143057 14 71 0.0 0.0 0.00 0.00 0.00 50 933.4
20260904142554 13 70 0.0 0.0 0.00 0.00 0.00 50 933.4
20260904142053 12 62 0.0 0.0 0.00 0.00 0.00 51 933.5
20260904141549 11 99 0.0 0.0 0.00 0.00 0.00 53 933.4
20260904141044 11 123 0.0 0.0 0.00 0.00 0.00 55 933.1
20260904140539 11 131 0.0 0.0 0.00 0.00 0.00 55 932.3
20260904140033 11 62 0.0 0.0 0.00 0.00 0.00 54 931.6
20260904135533 10 49 0.0 0.0 0.00 0.00 0.00 58 931.7
20260904135029 10 83 0.0 0.0 0.00 0.00 0.00 59 931.6
20260904134524 10 92 0.0 0.0 0.00 0.00 0.00 59 931.3
20260904134019 9 90 0.0 0.0 0.00 0.00 0.00 60 931.2
20260904133514 8 65 0.0 0.0 0.00 0.00 0.00 62 931.1
20260904133010 8 75 0.0 0.0 0.00 0.00 0.00 63 931.1
20260904132510 8 50 0.0 0.0 0.00 0.00 0.00 65 931.2
20260904132009 7 53 0.0 0.0 0.00 0.00 0.00 68 931.1
20260904131504 6 47 0.0 0.0 0.00 0.00 0.00 70 930.9
20260904131000 6 73 0.0 0.0 0.00 0.00 0.00 71 931.0
20260904130459 6 113 0.0 0.0 0.00 0.00 0.00 71 931.0
20260904125954 7 118 0.0 0.0 0.00 0.00 0.00 70 930.4
20260904125450 7 64 0.0 0.0 0.00 0.00 0.00 69 930.5
20260904124950 7 74 0.0 0.0 0.00 0.00 0.00 68 930.4
20260904124446 7 63 0.0 0.0 0.00 0.00 0.00 68 930.5
20260904123942 7 106 0.0 0.0 0.00 0.00 0.00 68 930.4
20260904123441 7 61 0.0 0.0 0.00 0.00 0.00 67 930.4
20260904122937 7 58 0.0 0.0 0.00 0.00 0.00 67 930.5
20260904122437 7 88 0.0 0.0 0.00 0.00 0.00 67 930.3
20260904121931 7 57 0.0 0.0 0.00 0.00 0.00 66 930.2
20260904121428 7 88 0.0 0.0 0.00 0.00 0.00 67 930.2
20260904120924 8 57 0.0 0.0 0.00 0.00 0.00 66 930.3
20260904120420 7 68 0.0 0.0 0.00 0.00 0.00 67 930.4
20260904115915 8 52 0.0 0.0 0.00 0.00 0.00 66 930.2
20260904115411 8 52 0.0 0.0 0.00 0.00 0.00 65 930.2
20260904114905 8 51 0.0 0.0 0.00 0.00 0.00 64 930.0
20260904114405 8 81 0.0 0.0 0.00 0.00 0.00 64 929.7
20260904113901 7 75 0.0 0.0 0.00 0.00 0.00 69 929.9
20260904113400 7 83 0.0 0.0 0.00 0.00 0.00 71 929.7
20260904112859 7 83 0.0 0.0 0.00 0.00 0.00 72 930.0
20260904112355 7 79 0.0 0.0 0.00 0.00 0.00 72 929.7
20260904111851 7 55 0.0 0.0 0.00 0.00 0.00 72 929.7
20260904111346 7 39 0.0 0.0 0.00 0.00 0.00 70 929.7
20260904110842 7 53 0.0 0.0 0.00 0.00 0.00 69 929.9
20260904110341 8 79 0.0 0.0 0.00 0.00 0.00 69 929.6
20260904105841 8 54 0.0 0.0 0.00 0.00 0.00 69 929.6
20260904105336 7 55 0.0 0.0 0.00 0.00 0.00 70 929.5
20260904104831 7 63 0.0 0.0 0.00 0.00 0.00 70 929.6
20260904104327 7 59 0.0 0.0 0.00 0.00 0.00 70 929.9
20260904103824 7 32 0.0 0.0 0.00 0.00 0.00 71 929.4
20260904103323 7 66 0.0 0.0 0.00 0.00 0.00 71 929.2
20260904102819 7 115 0.0 0.0 0.00 0.00 0.00 72 929.3
20260904102315 7 76 0.0 1.6 0.00 0.00 0.00 72 929.2
20260904101810 7 70 0.0 0.0 0.00 0.00 0.00 71 929.2
20260904101307 8 53 0.0 0.0 0.00 0.00 0.00 68 929.2
20260904100802 8 104 0.0 0.0 0.00 0.00 0.00 69 929.3
20260904100258 8 80 0.0 0.0 0.00 0.00 0.00 69 929.4
20260904095758 8 79 0.0 0.0 0.00 0.00 0.00 68 929.3
20260904095252 8 119 0.0 0.0 0.00 0.00 0.00 69 929.2
20260904094747 8 107 0.0 1.6 0.00 0.00 0.00 69 929.2
20260904094242 8 66 0.0 0.0 0.00 0.00 0.00 69 929.1
20260904093739 8 111 0.0 0.0 0.00 0.00 0.00 68 929.2
20260904093238 8 125 0.0 0.0 0.00 0.00 0.00 68 929.1
20260904092734 8 61 0.0 0.0 0.00 0.00 0.00 68 928.9
20260904092231 8 85 0.0 0.0 0.00 0.00 0.00 69 929.1
20260904091726 8 45 0.0 0.0 0.00 0.00 0.00 68 929.4
20260904091221 9 49 0.0 0.0 0.00 0.00 0.00 68 929.1
20260904090717 9 86 0.0 0.0 0.00 0.00 0.00 67 929.1
20260904090212 9 66 0.0 0.0 0.00 0.00 0.00 66 929.1
20260904085707 9 104 0.0 0.0 0.00 0.00 0.00 66 928.9
20260904085207 8 61 0.0 0.0 0.00 0.00 0.00 67 928.8
20260904084657 8 73 0.0 0.0 0.00 0.00 0.00 68 928.7
20260904084153 8 54 0.0 0.0 0.00 0.00 0.00 68 928.8
20260904083649 8 40 0.0 0.0 0.00 0.00 0.00 68 928.9
20260904083146 9 78 0.0 0.0 0.00 0.00 0.00 67 928.9
20260904082645 9 55 0.0 0.0 0.00 0.00 0.00 67 929.1
20260904082141 9 54 0.0 0.0 0.00 0.00 0.00 67 929.2
20260904081636 9 38 0.0 0.0 0.00 0.00 0.00 67 929.2
20260904081131 9 48 0.0 0.0 0.00 0.00 0.00 66 928.9
20260904080621 10 117 0.0 0.0 0.00 0.00 0.00 66 929.2
20260904080118 10 45 0.0 0.0 0.00 0.00 0.00 65 929.1
20260904075614 10 71 0.0 0.0 0.00 0.00 0.00 64 929.3
20260904075113 10 123 0.0 0.0 0.00 0.00 0.00 63 929.1
20260904074612 10 40 0.0 0.0 0.00 0.00 0.00 63 929.1
20260904074107 10 92 0.0 0.0 0.00 0.00 0.00 62 929.5
20260904073603 10 72 0.0 0.0 0.00 0.00 0.00 61 929.3
20260904073059 10 61 0.0 0.0 0.00 0.00 0.00 61 929.5
20260904072554 10 86 0.0 0.0 0.00 0.00 0.00 60 929.1
20260904072049 10 77 0.0 0.0 0.00 0.00 0.00 61 929.1
20260904071545 10 85 0.0 0.0 0.00 0.00 0.00 61 929.1
20260904071039 11 58 0.0 0.0 0.00 0.00 0.00 60 928.9
20260904070538 11 119 0.0 0.0 0.00 0.00 0.00 58 929.2
20260904070033 11 88 0.0 0.0 0.00 0.00 0.00 59 929.1
20260904065528 11 115 0.0 0.0 0.00 0.00 0.00 58 929.2
20260904065025 11 112 0.0 0.0 0.00 0.00 0.00 58 928.9
20260904064520 11 51 0.0 0.0 0.00 0.00 0.00 58 928.9
20260904064015 11 119 0.0 0.0 0.00 0.00 0.00 57 928.9
20260904063512 11 119 0.0 0.0 0.00 0.00 0.00 57 928.9
20260904063011 11 94 0.0 0.0 0.00 0.00 0.00 56 928.8
20260904062507 11 68 0.0 0.0 0.00 0.00 0.00 55 928.3
20260904062003 11 77 0.0 1.6 0.00 0.00 0.00 55 928.6
20260904061459 11 76 0.0 0.0 0.00 0.00 0.00 54 928.7
20260904060955 11 81 0.0 0.0 0.00 0.00 0.00 54 928.5
20260904060450 11 101 0.0 0.0 0.00 0.00 0.00 54 928.5
20260904055946 11 87 0.0 0.0 0.00 0.00 0.00 54 928.4
20260904055442 12 103 0.0 1.6 0.00 0.00 0.00 53 928.6
20260904054937 12 106 0.0 0.0 0.00 0.00 0.00 52 928.5
20260904054433 12 61 0.0 0.0 0.00 0.00 0.00 52 928.4
20260904053928 12 91 0.0 0.0 0.00 0.00 0.00 51 928.7
20260904053427 13 82 0.0 0.0 0.00 0.00 0.00 48 928.6
20260904052924 13 134 0.0 0.0 0.00 0.00 0.00 46 928.6
20260904052420 13 13 0.0 0.0 0.00 0.00 0.00 45 928.4
20260904051916 13 66 0.0 0.0 0.00 0.00 0.00 47 928.8
20260904051412 13 49 0.0 0.0 0.00 0.00 0.00 47 928.5
20260904050912 13 50 0.0 0.0 0.00 0.00 0.00 47 928.5
20260904050409 13 90 0.0 0.0 0.00 0.00 0.00 47 928.8
20260904045908 13 50 0.0 0.0 0.00 0.00 0.00 45 928.8
20260904045403 15 60 0.0 0.0 0.00 0.00 0.00 43 929.1
20260904044903 15 116 3.2 14.5 0.00 0.00 0.00 41 928.9
20260904044400 15 142 0.0 1.6 0.00 0.00 0.00 41 928.7
20260904043856 13 174 0.0 0.0 0.00 0.00 0.00 44 928.6
20260904043352 13 27 0.0 0.0 0.00 0.00 0.00 45 928.5
20260904042847 13 104 0.0 0.0 0.00 0.00 0.00 44 928.7
20260904042343 13 74 0.0 0.0 0.00 0.00 0.00 45 928.5
20260904041843 14 64 0.0 0.0 0.00 0.00 0.00 44 928.5
20260904041339 14 124 0.0 0.0 0.00 0.00 0.00 43 928.4
20260904040835 15 90 0.0 0.0 0.00 0.00 0.00 42 928.3
20260904040330 15 98 0.0 0.0 0.00 0.00 0.00 41 928.0
20260904035826 15 67 0.0 0.0 0.00 0.00 0.00 40 928.0
20260904035322 15 35 0.0 0.0 0.00 0.00 0.00 40 928.1
20260904034821 15 112 0.0 0.0 0.00 0.00 0.00 39 928.4
20260904034317 15 69 0.0 0.0 0.00 0.00 0.00 39 928.8
20260904033813 16 66 0.0 0.0 0.00 0.00 0.00 38 928.5
20260904033309 16 75 0.0 0.0 0.00 0.00 0.00 36 928.5
20260904032805 16 66 0.0 0.0 0.00 0.00 0.00 36 928.6
20260904032306 16 59 0.0 0.0 0.00 0.00 0.00 36 928.5
20260904031758 16 60 0.0 0.0 0.00 0.00 0.00 36 928.5
20260904031254 17 65 0.0 0.0 0.00 0.00 0.00 35 928.3
20260904030750 18 54 0.0 0.0 0.00 0.00 0.00 39 928.9
20260904030245 18 58 0.0 0.0 0.00 0.00 0.00 29 929.1
20260904025741 19 16 0.0 0.0 0.00 0.00 0.00 27 928.5
20260904025236 19 56 0.0 0.0 0.00 0.00 0.00 27 928.5
20260904024732 19 115 0.0 0.0 0.00 0.00 0.00 27 928.5
20260904024227 20 75 0.0 0.0 0.00 0.00 0.00 27 928.5
20260904023723 20 99 0.0 0.0 0.00 0.00 0.00 26 928.3
20260904023219 20 184 0.0 0.0 0.00 0.00 0.00 25 928.4
20260904022718 20 132 0.0 0.0 0.00 0.00 0.00 25 928.5
20260904022216 20 107 0.0 0.0 0.00 0.00 0.00 25 928.4
20260904021711 21 123 0.0 0.0 0.00 0.00 0.00 24 928.5
20260904021206 21 202 0.0 0.0 0.00 0.00 0.00 24 928.5
20260904020702 21 180 0.0 0.0 0.00 0.00 0.00 24 928.6
20260904020201 21 112 0.0 0.0 0.00 0.00 0.00 24 928.4
20260904015701 21 160 0.0 0.0 0.00 0.00 0.00 24 928.5
20260904015201 21 104 0.0 0.0 0.00 0.00 0.00 23 928.6
20260904014659 22 279 0.0 0.0 0.00 0.00 0.00 23 928.5
20260904014154 22 208 0.0 1.6 0.00 0.00 0.00 22 928.5
20260904013652 22 209 0.0 3.2 0.00 0.00 0.00 22 928.3
20260904013147 22 250 0.0 9.7 0.00 0.00 0.00 21 928.5
20260904012643 23 240 1.6 4.8 0.00 0.00 0.00 21 928.4
20260904012141 23 255 0.0 8.0 0.00 0.00 0.00 21 928.6
20260904011640 23 233 1.6 20.9 0.00 0.00 0.00 20 928.9
20260904011137 23 252 8.0 12.9 0.00 0.00 0.00 20 928.7
20260904010632 23 258 4.8 11.3 0.00 0.00 0.00 20 928.8
20260904010129 23 230 0.0 16.1 0.00 0.00 0.00 20 928.5
20260904005623 23 230 0.0 8.0 0.00 0.00 0.00 20 928.9
20260904005119 24 239 1.6 8.0 0.00 0.00 0.00 20 928.9
20260904004609 24 221 3.2 12.9 0.00 0.00 0.00 20 928.9
20260904004109 24 294 8.0 20.9 0.00 0.00 0.00 20 929.3
20260904003605 25 232 1.6 16.1 0.00 0.00 0.00 19 929.3